This is the latest recevied weather packets stored in our database for station/object EA1BQO-1. If no packets are shown the sender has not sent any weather packets the latest 10 day(s).
| Time | Temp. | Humidity | Pressure | Rain* | Wind** | Luminosity | Snow |
|---|---|---|---|---|---|---|---|
| 1778176079 | 17.22° C | 40% | 1004.7 hPa | 0 mm | - | - | - |
| 1778175479 | 17.78° C | 43% | 1004.6 hPa | 0 mm | - | - | - |
| 1778174879 | 16.67° C | 48% | 1004.8 hPa | 0 mm | - | - | - |
| 1778174279 | 17.22° C | 45% | 1004.8 hPa | 0 mm | - | - | - |
| 1778173679 | 17.78° C | 46% | 1004.8 hPa | 0 mm | - | - | - |
| 1778173079 | 17.78° C | 44% | 1004.7 hPa | 0 mm | - | - | - |
| 1778172479 | 17.22° C | 46% | 1004.9 hPa | 0 mm | - | - | - |
| 1778171879 | 17.22° C | 46% | 1005.1 hPa | 0 mm | - | - | - |
| 1778171279 | 17.22° C | 46% | 1005 hPa | 0 mm | - | - | - |
| 1778170679 | 17.22° C | 46% | 1005.1 hPa | 0 mm | - | - | - |
| 1778170079 | 17.78° C | 46% | 1005 hPa | 0 mm | - | - | - |
| 1778169479 | 17.78° C | 49% | 1005.1 hPa | 0 mm | - | - | - |
| 1778168879 | 17.22° C | 55% | 1005.5 hPa | 0 mm | - | - | - |
| 1778168279 | 16.11° C | 58% | 1005.4 hPa | 0 mm | - | - | - |
| 1778167679 | 16.11° C | 61% | 1005.5 hPa | 0.25 mm | - | - | - |
| 1778167079 | 14.44° C | 70% | 1005.8 hPa | 0.25 mm | - | - | - |
| 1778166479 | 13.33° C | 68% | 1006 hPa | 0.25 mm | - | - | - |
| 1778165879 | 13.33° C | 65% | 1006 hPa | 0.25 mm | - | - | - |
| 1778165279 | 13.33° C | 64% | 1006.1 hPa | 0.25 mm | - | - | - |
| 1778164679 | 13.89° C | 65% | 1006.4 hPa | 0.25 mm | - | - | - |
| 1778164079 | 14.44° C | 56% | 1005.8 hPa | 0 mm | - | - | - |
| 1778163479 | 14.44° C | 53% | 1005.7 hPa | 0 mm | - | - | - |
| 1778162879 | 15° C | 53% | 1005.7 hPa | 0 mm | - | - | - |
| 1778162279 | 15.56° C | 46% | 1005.5 hPa | 0 mm | - | - | - |
| 1778161679 | 16.67° C | 41% | 1005.3 hPa | 0 mm | - | - | - |
* Rain latest hour (hover to see other rain measurements)
** Current wind speed in m/s (hover to see current wind gust speed)